Time,TemperatureF,DewpointF,PressureIn,WindDirection,WindDirectionDegrees,WindSpeedMPH,WindSpeedGustMPH,Humidity,HourlyPrecipIn,Conditions,Clouds,dailyrainin,SolarRadiationWatts/m^2,SoftwareType,DateUTC
2013-02-20 00:00:00,8.1,-1.2,30.26,WNW,292,10.0,10.0,65,0.00,,,0.00,0,Wunderground v.1.15,2013-02-20 06:00:00,
2013-02-20 00:05:00,8.1,-0.9,30.26,WNW,294,5.0,13.0,66,0.00,,,0.00,0,Wunderground v.1.15,2013-02-20 06:05:00,
2013-02-20 00:10:00,8.0,-1.0,30.26,West,259,6.0,8.0,66,0.00,,,0.00,0,Wunderground v.1.15,2013-02-20 06:10:00,
2013-02-20 00:15:00,7.9,-1.1,30.26,WNW,292,4.0,11.0,66,0.00,,,0.00,0,Wunderground v.1.15,2013-02-20 06:15:00,
2013-02-20 00:20:00,7.9,-1.1,30.27,West,262,7.0,7.0,66,0.00,,,0.00,0,Wunderground v.1.15,2013-02-20 06:20:00,
2013-02-20 00:25:00,7.8,-1.2,30.26,NW,324,8.0,12.0,66,0.00,,,0.00,0,Wunderground v.1.15,2013-02-20 06:25:00,
2013-02-20 00:30:00,7.7,-1.3,30.27,WNW,299,5.0,7.0,66,0.00,,,0.00,0,Wunderground v.1.15,2013-02-20 06:30:00,
2013-02-20 00:35:00,7.7,-1.3,30.27,West,264,6.0,9.0,66,0.00,,,0.00,0,Wunderground v.1.15,2013-02-20 06:35:00,
2013-02-20 00:40:00,7.6,-1.4,30.27,NW,312,5.0,7.0,66,0.00,,,0.00,0,Wunderground v.1.15,2013-02-20 06:40:00,
2013-02-20 00:45:00,7.6,-1.4,30.27,West,270,6.0,10.0,66,0.00,,,0.00,0,Wunderground v.1.15,2013-02-20 06:45:00,
2013-02-20 00:50:00,7.6,-1.4,30.28,WNW,300,9.0,10.0,66,0.00,,,0.00,0,Wunderground v.1.15,2013-02-20 06:50:00,
2013-02-20 00:55:00,7.5,-1.5,30.28,WNW,297,8.0,11.0,66,0.00,,,0.00,0,Wunderground v.1.15,2013-02-20 06:55:00,
2013-02-20 01:00:00,7.5,-1.5,30.29,West,275,6.0,6.0,66,0.00,,,0.00,0,Wunderground v.1.15,2013-02-20 07:00:00,
2013-02-20 01:05:00,7.4,-1.3,30.29,West,264,7.0,10.0,67,0.00,,,0.00,0,Wunderground v.1.15,2013-02-20 07:05:00,
2013-02-20 01:10:00,7.4,-1.3,30.29,WNW,285,4.0,5.0,67,0.00,,,0.00,0,Wunderground v.1.15,2013-02-20 07:10:00,
2013-02-20 01:15:00,7.3,-1.1,30.29,West,269,7.0,7.0,68,0.00,,,0.00,0,Wunderground v.1.15,2013-02-20 07:15:00,
2013-02-20 01:20:00,7.2,-1.2,30.30,WNW,285,5.0,5.0,68,0.00,,,0.00,0,Wunderground v.1.15,2013-02-20 07:20:00,
2013-02-20 01:25:00,7.1,-1.2,30.30,West,278,2.0,9.0,68,0.00,,,0.00,0,Wunderground v.1.15,2013-02-20 07:25:00,
2013-02-20 01:30:00,7.1,-1.2,30.30,WNW,283,2.0,4.0,68,0.00,,,0.00,0,Wunderground v.1.15,2013-02-20 07:30:00,
2013-02-20 01:35:00,7.0,-1.0,30.31,West,273,3.0,10.0,69,0.00,,,0.00,0,Wunderground v.1.15,2013-02-20 07:35:00,
2013-02-20 01:40:00,6.9,-1.1,30.31,West,269,5.0,7.0,69,0.00,,,0.00,0,Wunderground v.1.15,2013-02-20 07:40:00,
2013-02-20 01:45:00,7.0,-1.0,30.31,West,266,3.0,10.0,69,0.00,,,0.00,0,Wunderground v.1.15,2013-02-20 07:45:00,
2013-02-20 01:50:00,6.9,-1.1,30.31,West,275,6.0,6.0,69,0.00,,,0.00,0,Wunderground v.1.15,2013-02-20 07:50:00,
2013-02-20 01:55:00,6.9,-1.1,30.31,WNW,288,5.0,9.0,69,0.00,,,0.00,0,Wunderground v.1.15,2013-02-20 07:55:00,
2013-02-20 02:00:00,6.8,-1.2,30.32,West,270,4.0,5.0,69,0.00,,,0.00,0,Wunderground v.1.15,2013-02-20 08:00:00,
2013-02-20 02:05:00,6.7,-1.3,30.32,WNW,293,3.0,8.0,69,0.00,,,0.00,0,Wunderground v.1.15,2013-02-20 08:05:00,
2013-02-20 02:10:00,6.7,-1.3,30.32,West,279,2.0,5.0,69,0.00,,,0.00,0,Wunderground v.1.15,2013-02-20 08:10:00,
2013-02-20 02:15:00,6.6,-1.1,30.32,West,279,4.0,10.0,70,0.00,,,0.00,0,Wunderground v.1.15,2013-02-20 08:15:00,
2013-02-20 02:20:00,6.6,-1.1,30.32,WNW,303,7.0,11.0,70,0.00,,,0.00,0,Wunderground v.1.15,2013-02-20 08:20:00,
2013-02-20 02:25:00,6.6,-1.1,30.32,WNW,296,9.0,11.0,70,0.00,,,0.00,0,Wunderground v.1.15,2013-02-20 08:25:00,
2013-02-20 02:30:00,6.5,-1.2,30.33,WNW,301,9.0,9.0,70,0.00,,,0.00,0,Wunderground v.1.15,2013-02-20 08:30:00,
2013-02-20 02:35:00,6.5,-1.2,30.33,West,277,4.0,11.0,70,0.00,,,0.00,0,Wunderground v.1.15,2013-02-20 08:35:00,
2013-02-20 02:40:00,6.5,-1.2,30.33,WSW,257,5.0,7.0,70,0.00,,,0.00,0,Wunderground v.1.15,2013-02-20 08:40:00,
2013-02-20 02:45:00,6.4,-1.3,30.33,WNW,300,9.0,14.0,70,0.00,,,0.00,0,Wunderground v.1.15,2013-02-20 08:45:00,
2013-02-20 02:50:00,6.4,-1.3,30.33,WNW,290,6.0,8.0,70,0.00,,,0.00,0,Wunderground v.1.15,2013-02-20 08:50:00,
2013-02-20 02:55:00,6.4,-1.3,30.33,NW,318,6.0,11.0,70,0.00,,,0.00,0,Wunderground v.1.15,2013-02-20 08:55:00,
2013-02-20 03:00:00,6.4,-1.3,30.33,WNW,286,3.0,7.0,70,0.00,,,0.00,0,Wunderground v.1.15,2013-02-20 09:00:00,
2013-02-20 03:05:00,6.4,-1.3,30.33,West,277,9.0,16.0,70,0.00,,,0.00,0,Wunderground v.1.15,2013-02-20 09:05:00,
2013-02-20 03:10:00,6.4,-1.3,30.33,WNW,288,5.0,7.0,70,0.00,,,0.00,0,Wunderground v.1.15,2013-02-20 09:10:00,
2013-02-20 03:15:00,6.3,-1.4,30.33,WNW,302,3.0,12.0,70,0.00,,,0.00,0,Wunderground v.1.15,2013-02-20 09:15:00,
2013-02-20 03:20:00,6.3,-1.4,30.33,WNW,284,6.0,6.0,70,0.00,,,0.00,0,Wunderground v.1.15,2013-02-20 09:20:00,
2013-02-20 03:25:00,6.2,-1.5,30.33,WNW,302,10.0,10.0,70,0.00,,,0.00,0,Wunderground v.1.15,2013-02-20 09:25:00,
2013-02-20 03:30:00,6.2,-1.5,30.33,NW,322,14.0,14.0,70,0.00,,,0.00,0,Wunderground v.1.15,2013-02-20 09:30:00,
2013-02-20 03:35:00,6.3,-1.4,30.33,NW,320,10.0,14.0,70,0.00,,,0.00,0,Wunderground v.1.15,2013-02-20 09:35:00,
2013-02-20 03:40:00,6.3,-1.4,30.33,WNW,297,7.0,8.0,70,0.00,,,0.00,0,Wunderground v.1.15,2013-02-20 09:40:00,
2013-02-20 03:45:00,6.3,-1.4,30.33,NW,324,14.0,14.0,70,0.00,,,0.00,0,Wunderground v.1.15,2013-02-20 09:45:00,
2013-02-20 03:50:00,6.3,-1.4,30.33,NW,323,7.0,7.0,70,0.00,,,0.00,0,Wunderground v.1.15,2013-02-20 09:50:00,
2013-02-20 03:55:00,6.3,-1.4,30.34,WNW,296,8.0,13.0,70,0.00,,,0.00,0,Wunderground v.1.15,2013-02-20 09:55:00,
2013-02-20 04:00:00,6.2,-1.5,30.34,NNW,328,9.0,9.0,70,0.00,,,0.00,0,Wunderground v.1.15,2013-02-20 10:00:00,
2013-02-20 04:05:00,6.2,-1.5,30.35,West,281,8.0,11.0,70,0.00,,,0.00,0,Wunderground v.1.15,2013-02-20 10:05:00,
2013-02-20 04:10:00,6.2,-1.5,30.35,WNW,282,7.0,7.0,70,0.00,,,0.00,0,Wunderground v.1.15,2013-02-20 10:10:00,
2013-02-20 04:15:00,6.1,-1.6,30.35,NW,310,10.0,12.0,70,0.00,,,0.00,0,Wunderground v.1.15,2013-02-20 10:15:00,
2013-02-20 04:20:00,6.1,-1.6,30.35,NW,309,6.0,6.0,70,0.00,,,0.00,0,Wunderground v.1.15,2013-02-20 10:20:00,
2013-02-20 04:25:00,6.0,-1.7,30.35,WNW,292,4.0,13.0,70,0.00,,,0.00,0,Wunderground v.1.15,2013-02-20 10:25:00,
2013-02-20 04:29:00,6.0,-1.7,30.35,WNW,295,3.0,13.0,70,0.00,,,0.00,0,Wunderground v.1.15,2013-02-20 10:29:00,
2013-02-20 04:34:00,6.0,-1.7,30.35,NW,313,4.0,14.0,70,0.00,,,0.00,0,Wunderground v.1.15,2013-02-20 10:34:00,
2013-02-20 04:39:00,5.9,-1.5,30.35,NW,306,2.0,14.0,71,0.00,,,0.00,0,Wunderground v.1.15,2013-02-20 10:39:00,
2013-02-20 04:44:00,5.9,-1.5,30.36,West,278,2.0,13.0,71,0.00,,,0.00,0,Wunderground v.1.15,2013-02-20 10:44:00,
2013-02-20 04:49:00,5.8,-1.6,30.36,WNW,297,3.0,13.0,71,0.00,,,0.00,0,Wunderground v.1.15,2013-02-20 10:49:00,
2013-02-20 04:54:00,5.8,-1.6,30.36,WNW,298,4.0,9.0,71,0.00,,,0.00,0,Wunderground v.1.15,2013-02-20 10:54:00,
2013-02-20 04:59:00,5.8,-1.6,30.36,WNW,297,4.0,10.0,71,0.00,,,0.00,0,Wunderground v.1.15,2013-02-20 10:59:00,
2013-02-20 05:04:00,5.7,-1.7,30.36,West,279,6.0,15.0,71,0.00,,,0.00,0,Wunderground v.1.15,2013-02-20 11:04:00,
2013-02-20 05:09:00,5.7,-1.7,30.36,NW,319,6.0,15.0,71,0.00,,,0.00,0,Wunderground v.1.15,2013-02-20 11:09:00,
2013-02-20 05:14:00,5.7,-1.7,30.36,NW,322,7.0,12.0,71,0.00,,,0.00,0,Wunderground v.1.15,2013-02-20 11:14:00,
2013-02-20 05:19:00,5.7,-1.7,30.36,WNW,302,5.0,12.0,71,0.00,,,0.00,0,Wunderground v.1.15,2013-02-20 11:19:00,
2013-02-20 05:24:00,5.6,-1.8,30.36,NW,322,7.0,12.0,71,0.00,,,0.00,0,Wunderground v.1.15,2013-02-20 11:24:00,
2013-02-20 05:29:00,5.6,-1.8,30.36,NW,311,4.0,13.0,71,0.00,,,0.00,0,Wunderground v.1.15,2013-02-20 11:29:00,
2013-02-20 05:34:00,5.6,-1.5,30.36,WNW,293,5.0,15.0,72,0.00,,,0.00,0,Wunderground v.1.15,2013-02-20 11:34:00,
2013-02-20 05:39:00,5.5,-1.6,30.37,NW,308,7.0,15.0,72,0.00,,,0.00,0,Wunderground v.1.15,2013-02-20 11:39:00,
2013-02-20 05:44:00,5.5,-1.6,30.37,NW,325,8.0,12.0,72,0.00,,,0.00,0,Wunderground v.1.15,2013-02-20 11:44:00,
2013-02-20 05:49:00,5.5,-1.6,30.36,WNW,302,6.0,12.0,72,0.00,,,0.00,0,Wunderground v.1.15,2013-02-20 11:49:00,
2013-02-20 05:54:00,5.4,-1.7,30.36,WNW,291,5.0,9.0,72,0.00,,,0.00,0,Wunderground v.1.15,2013-02-20 11:54:00,
2013-02-20 05:59:00,5.4,-1.7,30.37,West,280,8.0,9.0,72,0.00,,,0.00,0,Wunderground v.1.15,2013-02-20 11:59:00,
2013-02-20 06:04:00,5.4,-1.4,30.37,WNW,299,8.0,9.0,73,0.00,,,0.00,0,Wunderground v.1.15,2013-02-20 12:04:00,
2013-02-20 06:09:00,5.4,-1.4,30.36,WNW,293,7.0,10.0,73,0.00,,,0.00,0,Wunderground v.1.15,2013-02-20 12:09:00,
2013-02-20 06:14:00,5.4,-1.4,30.36,WNW,294,6.0,12.0,73,0.00,,,0.00,0,Wunderground v.1.15,2013-02-20 12:14:00,
2013-02-20 06:19:00,5.4,-1.4,30.37,WSW,237,4.0,12.0,73,0.00,,,0.00,0,Wunderground v.1.15,2013-02-20 12:19:00,
2013-02-20 06:24:00,5.3,-1.5,30.37,WNW,293,4.0,9.0,73,0.00,,,0.00,0,Wunderground v.1.15,2013-02-20 12:24:00,
2013-02-20 06:29:00,5.3,-1.2,30.37,West,270,4.0,9.0,74,0.00,,,0.00,0,Wunderground v.1.15,2013-02-20 12:29:00,
2013-02-20 06:34:00,5.3,-1.2,30.37,WNW,288,6.0,10.0,74,0.00,,,0.00,0,Wunderground v.1.15,2013-02-20 12:34:00,
2013-02-20 06:39:00,5.3,-1.2,30.38,WNW,290,5.0,10.0,74,0.00,,,0.00,0,Wunderground v.1.15,2013-02-20 12:39:00,
2013-02-20 06:44:00,5.3,-1.2,30.37,WNW,289,3.0,9.0,74,0.00,,,0.00,0,Wunderground v.1.15,2013-02-20 12:44:00,
2013-02-20 06:49:00,5.3,-1.2,30.38,NW,319,3.0,9.0,74,0.00,,,0.00,7,Wunderground v.1.15,2013-02-20 12:49:00,
2013-02-20 06:54:00,5.3,-1.2,30.38,NW,307,1.0,3.0,74,0.00,,,0.00,9,Wunderground v.1.15,2013-02-20 12:54:00,
2013-02-20 06:59:00,5.3,-1.2,30.38,WNW,292,2.0,6.0,74,0.00,,,0.00,12,Wunderground v.1.15,2013-02-20 12:59:00,
2013-02-20 07:04:00,5.4,-0.8,30.38,WNW,297,6.0,8.0,75,0.00,,,0.00,18,Wunderground v.1.15,2013-02-20 13:04:00,
2013-02-20 07:09:00,5.6,-0.6,30.38,NW,318,6.0,9.0,75,0.00,,,0.00,26,Wunderground v.1.15,2013-02-20 13:09:00,
2013-02-20 07:14:00,5.8,-0.7,30.38,WNW,289,7.0,8.0,74,0.00,,,0.00,35,Wunderground v.1.15,2013-02-20 13:14:00,
2013-02-20 07:19:00,6.0,-0.5,30.39,NW,315,3.0,9.0,74,0.00,,,0.00,46,Wunderground v.1.15,2013-02-20 13:19:00,
2013-02-20 07:24:00,6.2,-0.3,30.39,WNW,300,2.0,6.0,74,0.00,,,0.00,60,Wunderground v.1.15,2013-02-20 13:24:00,
2013-02-20 07:29:00,6.4,-0.1,30.40,NW,322,4.0,10.0,74,0.00,,,0.00,76,Wunderground v.1.15,2013-02-20 13:29:00,
2013-02-20 07:34:00,6.7,-0.1,30.39,NW,321,5.0,7.0,73,0.00,,,0.00,91,Wunderground v.1.15,2013-02-20 13:34:00,
2013-02-20 07:39:00,6.9,0.4,30.40,West,279,9.0,9.0,74,0.00,,,0.00,105,Wunderground v.1.15,2013-02-20 13:39:00,
2013-02-20 07:44:00,7.1,0.3,30.40,NNW,329,5.0,6.0,73,0.00,,,0.00,125,Wunderground v.1.15,2013-02-20 13:44:00,
2013-02-20 07:49:00,7.4,0.6,30.40,NNW,328,0.0,6.0,73,0.00,,,0.00,144,Wunderground v.1.15,2013-02-20 13:49:00,
2013-02-20 07:54:00,7.6,0.7,30.39,NW,319,5.0,11.0,73,0.00,,,0.00,163,Wunderground v.1.15,2013-02-20 13:54:00,
2013-02-20 07:59:00,7.7,0.5,30.39,North,360,2.0,11.0,72,0.00,,,0.00,183,Wunderground v.1.15,2013-02-20 13:59:00,
2013-02-20 08:04:00,8.0,1.1,30.40,NNW,330,5.0,7.0,73,0.00,,,0.00,202,Wunderground v.1.15,2013-02-20 14:04:00,
2013-02-20 08:09:00,8.3,1.4,30.39,NW,311,6.0,7.0,73,0.00,,,0.00,223,Wunderground v.1.15,2013-02-20 14:09:00,
2013-02-20 08:14:00,8.6,1.7,30.39,North,351,4.0,8.0,73,0.00,,,0.00,243,Wunderground v.1.15,2013-02-20 14:14:00,
2013-02-20 08:19:00,8.8,1.6,30.39,NW,321,6.0,8.0,72,0.00,,,0.00,258,Wunderground v.1.15,2013-02-20 14:19:00,
2013-02-20 08:24:00,9.1,1.9,30.39,NNW,344,2.0,6.0,72,0.00,,,0.00,278,Wunderground v.1.15,2013-02-20 14:24:00,
2013-02-20 08:29:00,9.4,2.2,30.39,North,355,5.0,8.0,72,0.00,,,0.00,294,Wunderground v.1.15,2013-02-20 14:29:00,
2013-02-20 08:34:00,9.7,2.5,30.40,NNW,334,7.0,8.0,72,0.00,,,0.00,309,Wunderground v.1.15,2013-02-20 14:34:00,
2013-02-20 08:39:00,9.9,2.7,30.40,NW,319,5.0,8.0,72,0.00,,,0.00,325,Wunderground v.1.15,2013-02-20 14:39:00,
2013-02-20 08:44:00,10.0,2.8,30.40,NNW,338,6.0,11.0,72,0.00,,,0.00,339,Wunderground v.1.15,2013-02-20 14:44:00,
2013-02-20 08:49:00,10.2,3.0,30.40,NW,326,4.0,11.0,72,0.00,,,0.00,352,Wunderground v.1.15,2013-02-20 14:49:00,
2013-02-20 08:54:00,10.5,3.3,30.40,North,355,2.0,9.0,72,0.00,,,0.00,367,Wunderground v.1.15,2013-02-20 14:54:00,
2013-02-20 08:59:00,10.6,3.0,30.40,NW,316,4.0,10.0,71,0.00,,,0.00,381,Wunderground v.1.15,2013-02-20 14:59:00,
2013-02-20 09:04:00,10.6,3.3,30.40,NW,313,4.0,9.0,72,0.00,,,0.00,396,Wunderground v.1.15,2013-02-20 15:04:00,
2013-02-20 09:09:00,11.0,3.7,30.41,North,355,3.0,9.0,72,0.00,,,0.00,410,Wunderground v.1.15,2013-02-20 15:09:00,
2013-02-20 09:14:00,11.3,4.0,30.40,North,5,5.0,9.0,72,0.00,,,0.00,424,Wunderground v.1.15,2013-02-20 15:14:00,
2013-02-20 09:19:00,11.6,4.3,30.40,NNW,338,5.0,10.0,72,0.00,,,0.00,438,Wunderground v.1.15,2013-02-20 15:19:00,
2013-02-20 09:24:00,11.7,4.1,30.40,WNW,302,6.0,12.0,71,0.00,,,0.00,448,Wunderground v.1.15,2013-02-20 15:24:00,
2013-02-20 09:29:00,11.7,4.1,30.40,NW,322,6.0,12.0,71,0.00,,,0.00,462,Wunderground v.1.15,2013-02-20 15:29:00,
2013-02-20 09:34:00,11.8,4.2,30.41,NNW,337,6.0,14.0,71,0.00,,,0.00,475,Wunderground v.1.15,2013-02-20 15:34:00,
2013-02-20 09:39:00,12.0,4.4,30.41,NNE,12,4.0,14.0,71,0.00,,,0.00,487,Wunderground v.1.15,2013-02-20 15:39:00,
2013-02-20 09:44:00,12.3,4.7,30.41,North,351,2.0,9.0,71,0.00,,,0.00,499,Wunderground v.1.15,2013-02-20 15:44:00,
2013-02-20 09:49:00,12.7,5.1,30.41,WNW,303,5.0,9.0,71,0.00,,,0.00,510,Wunderground v.1.15,2013-02-20 15:49:00,
2013-02-20 09:54:00,12.9,5.0,30.41,NNW,348,5.0,7.0,70,0.00,,,0.00,520,Wunderground v.1.15,2013-02-20 15:54:00,
2013-02-20 09:59:00,12.9,5.0,30.41,NW,311,5.0,11.0,70,0.00,,,0.00,531,Wunderground v.1.15,2013-02-20 15:59:00,
2013-02-20 10:04:00,13.3,5.3,30.41,NW,319,4.0,9.0,70,0.00,,,0.00,540,Wunderground v.1.15,2013-02-20 16:04:00,
2013-02-20 10:09:00,13.4,5.1,30.41,NNW,331,2.0,9.0,69,0.00,,,0.00,550,Wunderground v.1.15,2013-02-20 16:09:00,
2013-02-20 10:14:00,13.7,6.0,30.41,NW,320,2.0,7.0,71,0.00,,,0.00,559,Wunderground v.1.15,2013-02-20 16:14:00,
2013-02-20 10:19:00,14.1,6.1,30.41,NW,316,8.0,9.0,70,0.00,,,0.00,568,Wunderground v.1.15,2013-02-20 16:19:00,
2013-02-20 10:24:00,14.3,6.0,30.41,NW,314,2.0,8.0,69,0.00,,,0.00,577,Wunderground v.1.15,2013-02-20 16:24:00,
2013-02-20 10:29:00,14.5,6.5,30.42,NW,319,4.0,8.0,70,0.00,,,0.00,584,Wunderground v.1.15,2013-02-20 16:29:00,
2013-02-20 10:34:00,15.0,6.3,30.42,North,350,5.0,9.0,68,0.00,,,0.00,592,Wunderground v.1.15,2013-02-20 16:34:00,
2013-02-20 10:39:00,15.1,6.4,30.42,WSW,254,4.0,9.0,68,0.00,,,0.00,596,Wunderground v.1.15,2013-02-20 16:39:00,
2013-02-20 10:44:00,15.1,6.1,30.42,NNW,333,3.0,8.0,67,0.00,,,0.00,606,Wunderground v.1.15,2013-02-20 16:44:00,
2013-02-20 10:49:00,15.3,6.3,30.42,NW,309,7.0,13.0,67,0.00,,,0.00,613,Wunderground v.1.15,2013-02-20 16:49:00,
2013-02-20 10:54:00,15.6,6.9,30.43,WNW,287,6.0,8.0,68,0.00,,,0.00,621,Wunderground v.1.15,2013-02-20 16:54:00,
2013-02-20 10:59:00,15.9,7.2,30.43,WNW,283,5.0,11.0,68,0.00,,,0.00,626,Wunderground v.1.15,2013-02-20 16:59:00,
2013-02-20 11:04:00,15.9,6.5,30.43,WNW,295,6.0,11.0,66,0.00,,,0.00,631,Wunderground v.1.15,2013-02-20 17:04:00,
2013-02-20 11:09:00,16.1,6.7,30.43,NNW,333,4.0,11.0,66,0.00,,,0.00,635,Wunderground v.1.15,2013-02-20 17:09:00,
2013-02-20 11:14:00,16.6,7.2,30.43,NW,315,6.0,10.0,66,0.00,,,0.00,640,Wunderground v.1.15,2013-02-20 17:14:00,
2013-02-20 11:19:00,17.0,7.6,30.43,WSW,240,6.0,10.0,66,0.00,,,0.00,645,Wunderground v.1.15,2013-02-20 17:19:00,
2013-02-20 11:24:00,16.8,7.4,30.43,WNW,284,7.0,8.0,66,0.00,,,0.00,649,Wunderground v.1.15,2013-02-20 17:24:00,
2013-02-20 11:29:00,16.7,7.3,30.43,WNW,284,5.0,10.0,66,0.00,,,0.00,649,Wunderground v.1.15,2013-02-20 17:29:00,
2013-02-20 11:34:00,16.7,7.3,30.43,WNW,303,6.0,11.0,66,0.00,,,0.00,636,Wunderground v.1.15,2013-02-20 17:34:00,
2013-02-20 11:39:00,16.8,7.4,30.43,NW,325,6.0,11.0,66,0.00,,,0.00,647,Wunderground v.1.15,2013-02-20 17:39:00,
2013-02-20 11:44:00,17.2,7.8,30.42,NW,324,12.0,12.0,66,0.00,,,0.00,661,Wunderground v.1.15,2013-02-20 17:44:00,
2013-02-20 11:49:00,17.3,7.5,30.42,NW,319,10.0,12.0,65,0.00,,,0.00,663,Wunderground v.1.15,2013-02-20 17:49:00,
2013-02-20 11:54:00,17.4,7.6,30.42,WNW,292,6.0,10.0,65,0.00,,,0.00,664,Wunderground v.1.15,2013-02-20 17:54:00,
2013-02-20 11:59:00,17.7,8.3,30.42,NW,307,6.0,10.0,66,0.00,,,0.00,666,Wunderground v.1.15,2013-02-20 17:59:00,
2013-02-20 12:04:00,18.0,8.2,30.42,West,263,7.0,9.0,65,0.00,,,0.00,668,Wunderground v.1.15,2013-02-20 18:04:00,
2013-02-20 12:09:00,18.1,8.6,30.41,West,277,5.0,10.0,66,0.00,,,0.00,673,Wunderground v.1.15,2013-02-20 18:09:00,
2013-02-20 12:14:00,18.2,8.4,30.41,WNW,294,10.0,11.0,65,0.00,,,0.00,561,Wunderground v.1.15,2013-02-20 18:14:00,
2013-02-20 12:19:00,18.2,8.4,30.40,WNW,284,6.0,11.0,65,0.00,,,0.00,670,Wunderground v.1.15,2013-02-20 18:19:00,
2013-02-20 12:24:00,18.4,8.6,30.40,WNW,293,5.0,8.0,65,0.00,,,0.00,629,Wunderground v.1.15,2013-02-20 18:24:00,
2013-02-20 12:29:00,18.8,9.0,30.39,West,275,3.0,8.0,65,0.00,,,0.00,605,Wunderground v.1.15,2013-02-20 18:29:00,
2013-02-20 12:34:00,18.9,8.4,30.40,WNW,290,3.0,8.0,63,0.00,,,0.00,469,Wunderground v.1.15,2013-02-20 18:34:00,
2013-02-20 12:39:00,18.9,8.7,30.40,WNW,294,3.0,8.0,64,0.00,,,0.00,362,Wunderground v.1.15,2013-02-20 18:39:00,
2013-02-20 12:44:00,19.1,9.3,30.40,NW,313,8.0,10.0,65,0.00,,,0.00,429,Wunderground v.1.15,2013-02-20 18:44:00,
2013-02-20 12:49:00,19.0,9.2,30.41,NW,315,3.0,10.0,65,0.00,,,0.00,541,Wunderground v.1.15,2013-02-20 18:49:00,
2013-02-20 12:54:00,19.2,9.0,30.41,West,275,5.0,8.0,64,0.00,,,0.00,563,Wunderground v.1.15,2013-02-20 18:54:00,
2013-02-20 12:59:00,19.5,9.3,30.42,West,265,5.0,8.0,64,0.00,,,0.00,598,Wunderground v.1.15,2013-02-20 18:59:00,
2013-02-20 13:04:00,19.7,9.5,30.41,NW,309,6.0,8.0,64,0.00,,,0.00,638,Wunderground v.1.15,2013-02-20 19:04:00,
2013-02-20 13:09:00,20.0,9.8,30.41,WNW,289,4.0,10.0,64,0.00,,,0.00,547,Wunderground v.1.15,2013-02-20 19:09:00,
2013-02-20 13:14:00,20.0,9.8,30.42,WNW,303,8.0,12.0,64,0.00,,,0.00,606,Wunderground v.1.15,2013-02-20 19:14:00,
2013-02-20 13:19:00,20.4,9.8,30.42,WNW,301,4.0,12.0,63,0.00,,,0.00,657,Wunderground v.1.15,2013-02-20 19:19:00,
2013-02-20 13:24:00,20.7,10.1,30.42,WNW,296,6.0,7.0,63,0.00,,,0.00,626,Wunderground v.1.15,2013-02-20 19:24:00,
2013-02-20 13:29:00,20.8,10.2,30.42,WSW,254,3.0,9.0,63,0.00,,,0.00,613,Wunderground v.1.15,2013-02-20 19:29:00,
2013-02-20 13:34:00,20.8,10.2,30.42,NW,323,6.0,9.0,63,0.00,,,0.00,624,Wunderground v.1.15,2013-02-20 19:34:00,
2013-02-20 13:39:00,20.9,9.9,30.43,WNW,302,3.0,10.0,62,0.00,,,0.00,612,Wunderground v.1.15,2013-02-20 19:39:00,
2013-02-20 13:44:00,21.0,10.0,30.43,WNW,291,0.0,6.0,62,0.00,,,0.00,594,Wunderground v.1.15,2013-02-20 19:44:00,
2013-02-20 13:49:00,21.5,10.5,30.43,West,271,5.0,7.0,62,0.00,,,0.00,568,Wunderground v.1.15,2013-02-20 19:49:00,
2013-02-20 13:54:00,21.4,10.4,30.44,SW,236,3.0,7.0,62,0.00,,,0.00,538,Wunderground v.1.15,2013-02-20 19:54:00,
2013-02-20 13:59:00,21.8,10.8,30.44,WSW,258,5.0,8.0,62,0.00,,,0.00,512,Wunderground v.1.15,2013-02-20 19:59:00,
2013-02-20 14:04:00,21.8,10.8,30.43,WSW,257,7.0,11.0,62,0.00,,,0.00,515,Wunderground v.1.15,2013-02-20 20:04:00,
2013-02-20 14:09:00,21.7,10.3,30.44,WSW,242,3.0,11.0,61,0.00,,,0.00,512,Wunderground v.1.15,2013-02-20 20:09:00,
2013-02-20 14:14:00,21.8,11.1,30.44,SW,234,2.0,6.0,63,0.00,,,0.00,529,Wunderground v.1.15,2013-02-20 20:14:00,
2013-02-20 14:19:00,21.7,10.7,30.44,West,260,2.0,9.0,62,0.00,,,0.00,504,Wunderground v.1.15,2013-02-20 20:19:00,
2013-02-20 14:24:00,22.0,11.3,30.44,WSW,245,4.0,6.0,63,0.00,,,0.00,476,Wunderground v.1.15,2013-02-20 20:24:00,
2013-02-20 14:29:00,22.2,10.8,30.44,WSW,251,3.0,10.0,61,0.00,,,0.00,476,Wunderground v.1.15,2013-02-20 20:29:00,
2013-02-20 14:34:00,22.4,11.3,30.43,WSW,248,3.0,6.0,62,0.00,,,0.00,466,Wunderground v.1.15,2013-02-20 20:34:00,
2013-02-20 14:39:00,22.5,11.1,30.43,West,279,4.0,9.0,61,0.00,,,0.00,492,Wunderground v.1.15,2013-02-20 20:39:00,
2013-02-20 14:44:00,22.4,10.6,30.43,NW,323,3.0,9.0,60,0.00,,,0.00,487,Wunderground v.1.15,2013-02-20 20:44:00,
2013-02-20 14:49:00,22.5,11.1,30.43,WSW,252,3.0,9.0,61,0.00,,,0.00,466,Wunderground v.1.15,2013-02-20 20:49:00,
2013-02-20 14:54:00,22.7,11.6,30.42,WNW,293,3.0,5.0,62,0.00,,,0.00,450,Wunderground v.1.15,2013-02-20 20:54:00,
2013-02-20 14:59:00,22.9,11.4,30.42,West,269,4.0,10.0,61,0.00,,,0.00,436,Wunderground v.1.15,2013-02-20 20:59:00,
2013-02-20 15:04:00,22.8,11.0,30.42,NNW,329,3.0,9.0,60,0.00,,,0.00,397,Wunderground v.1.15,2013-02-20 21:04:00,
2013-02-20 15:09:00,22.7,10.5,30.42,WNW,288,4.0,10.0,59,0.00,,,0.00,360,Wunderground v.1.15,2013-02-20 21:09:00,
2013-02-20 15:14:00,22.6,10.8,30.41,WNW,283,4.0,9.0,60,0.00,,,0.00,343,Wunderground v.1.15,2013-02-20 21:14:00,
2013-02-20 15:18:00,22.3,10.9,30.41,WNW,292,5.0,9.0,61,0.00,,,0.00,350,Wunderground v.1.15,2013-02-20 21:18:00,
2013-02-20 15:23:00,22.4,11.0,30.41,NW,319,4.0,8.0,61,0.00,,,0.00,329,Wunderground v.1.15,2013-02-20 21:23:00,
2013-02-20 15:28:00,22.6,10.8,30.41,NW,316,6.0,8.0,60,0.00,,,0.00,297,Wunderground v.1.15,2013-02-20 21:28:00,
2013-02-20 15:33:00,22.6,10.8,30.41,West,273,4.0,8.0,60,0.00,,,0.00,260,Wunderground v.1.15,2013-02-20 21:33:00,
2013-02-20 15:38:00,22.5,10.7,30.42,West,269,5.0,8.0,60,0.00,,,0.00,269,Wunderground v.1.15,2013-02-20 21:38:00,
2013-02-20 15:43:00,22.4,10.2,30.41,NW,321,7.0,14.0,59,0.00,,,0.00,232,Wunderground v.1.15,2013-02-20 21:43:00,
2013-02-20 15:48:00,22.3,10.1,30.41,WNW,302,4.0,14.0,59,0.00,,,0.00,216,Wunderground v.1.15,2013-02-20 21:48:00,
2013-02-20 15:53:00,22.4,11.0,30.41,NW,319,4.0,7.0,61,0.00,,,0.00,199,Wunderground v.1.15,2013-02-20 21:53:00,
2013-02-20 15:58:00,22.5,11.1,30.41,WNW,300,7.0,7.0,61,0.00,,,0.00,185,Wunderground v.1.15,2013-02-20 21:58:00,
2013-02-20 16:03:00,22.4,10.6,30.41,WSW,257,4.0,7.0,60,0.00,,,0.00,186,Wunderground v.1.15,2013-02-20 22:03:00,
2013-02-20 16:08:00,22.3,10.5,30.41,WNW,289,6.0,10.0,60,0.00,,,0.00,142,Wunderground v.1.15,2013-02-20 22:08:00,
2013-02-20 16:13:00,22.2,10.4,30.41,NNW,328,3.0,6.0,60,0.00,,,0.00,139,Wunderground v.1.15,2013-02-20 22:13:00,
2013-02-20 16:18:00,22.2,10.8,30.41,WNW,299,2.0,6.0,61,0.00,,,0.00,127,Wunderground v.1.15,2013-02-20 22:18:00,
2013-02-20 16:23:00,22.2,10.8,30.41,NW,304,3.0,8.0,61,0.00,,,0.00,118,Wunderground v.1.15,2013-02-20 22:23:00,
2013-02-20 16:28:00,22.1,10.3,30.41,NW,309,4.0,8.0,60,0.00,,,0.00,100,Wunderground v.1.15,2013-02-20 22:28:00,
2013-02-20 16:33:00,22.1,10.3,30.42,NNW,336,6.0,9.0,60,0.00,,,0.00,97,Wunderground v.1.15,2013-02-20 22:33:00,
2013-02-20 16:38:00,22.1,10.7,30.41,West,281,6.0,9.0,61,0.00,,,0.00,81,Wunderground v.1.15,2013-02-20 22:38:00,
2013-02-20 16:43:00,22.0,10.6,30.42,NNW,330,3.0,7.0,61,0.00,,,0.00,79,Wunderground v.1.15,2013-02-20 22:43:00,
2013-02-20 16:48:00,22.0,10.6,30.42,NW,323,5.0,7.0,61,0.00,,,0.00,72,Wunderground v.1.15,2013-02-20 22:48:00,
2013-02-20 16:53:00,22.1,11.1,30.42,NW,323,0.0,5.0,62,0.00,,,0.00,63,Wunderground v.1.15,2013-02-20 22:53:00,
2013-02-20 16:58:00,22.1,11.1,30.42,NW,326,4.0,6.0,62,0.00,,,0.00,54,Wunderground v.1.15,2013-02-20 22:58:00,
2013-02-20 17:03:00,22.0,10.6,30.42,WNW,298,3.0,8.0,61,0.00,,,0.00,46,Wunderground v.1.15,2013-02-20 23:03:00,
2013-02-20 17:08:00,22.0,10.6,30.42,NW,308,2.0,8.0,61,0.00,,,0.00,37,Wunderground v.1.15,2013-02-20 23:08:00,
2013-02-20 17:13:00,21.9,11.2,30.42,NW,317,2.0,4.0,63,0.00,,,0.00,26,Wunderground v.1.15,2013-02-20 23:13:00,
2013-02-20 17:18:00,21.8,10.8,30.42,WNW,300,2.0,9.0,62,0.00,,,0.00,18,Wunderground v.1.15,2013-02-20 23:18:00,
2013-02-20 17:23:00,21.7,10.7,30.42,NW,318,3.0,8.0,62,0.00,,,0.00,12,Wunderground v.1.15,2013-02-20 23:23:00,
2013-02-20 17:28:00,21.5,10.5,30.42,NNW,330,4.0,8.0,62,0.00,,,0.00,7,Wunderground v.1.15,2013-02-20 23:28:00,
2013-02-20 17:33:00,21.4,10.4,30.42,NW,321,3.0,5.0,62,0.00,,,0.00,0,Wunderground v.1.15,2013-02-20 23:33:00,
2013-02-20 17:38:00,21.2,10.6,30.42,NW,310,3.0,5.0,63,0.00,,,0.00,0,Wunderground v.1.15,2013-02-20 23:38:00,
2013-02-20 17:43:00,21.1,10.5,30.42,NW,319,2.0,5.0,63,0.00,,,0.00,0,Wunderground v.1.15,2013-02-20 23:43:00,
2013-02-20 17:48:00,20.9,10.3,30.42,NW,318,3.0,5.0,63,0.00,,,0.00,0,Wunderground v.1.15,2013-02-20 23:48:00,
2013-02-20 17:53:00,20.8,10.2,30.42,NW,312,4.0,6.0,63,0.00,,,0.00,0,Wunderground v.1.15,2013-02-20 23:53:00,
2013-02-20 17:58:00,20.7,10.4,30.42,WNW,303,2.0,6.0,64,0.00,,,0.00,0,Wunderground v.1.15,2013-02-20 23:58:00,
2013-02-20 18:03:00,20.6,10.3,30.42,NW,304,3.0,4.0,64,0.00,,,0.00,0,Wunderground v.1.15,2013-02-21 00:03:00,
2013-02-20 18:08:00,20.5,10.2,30.42,NW,304,3.0,5.0,64,0.00,,,0.00,0,Wunderground v.1.15,2013-02-21 00:08:00,
2013-02-20 18:13:00,20.4,10.5,30.42,NW,304,0.0,3.0,65,0.00,,,0.00,0,Wunderground v.1.15,2013-02-21 00:13:00,
2013-02-20 18:18:00,20.3,10.4,30.42,NW,304,0.0,3.0,65,0.00,,,0.00,0,Wunderground v.1.15,2013-02-21 00:18:00,
2013-02-20 18:23:00,20.2,10.6,30.42,NW,304,0.0,2.0,66,0.00,,,0.00,0,Wunderground v.1.15,2013-02-21 00:23:00,
2013-02-20 18:28:00,20.1,10.6,30.42,NW,304,1.0,2.0,66,0.00,,,0.00,0,Wunderground v.1.15,2013-02-21 00:28:00,
2013-02-20 18:33:00,20.0,10.5,30.42,NW,304,0.0,0.0,66,0.00,,,0.00,0,Wunderground v.1.15,2013-02-21 00:33:00,
2013-02-20 18:38:00,19.9,10.4,30.42,NW,304,0.0,2.0,66,0.00,,,0.00,0,Wunderground v.1.15,2013-02-21 00:38:00,
2013-02-20 18:43:00,19.8,10.6,30.42,NW,304,0.0,0.0,67,0.00,,,0.00,0,Wunderground v.1.15,2013-02-21 00:43:00,
2013-02-20 18:48:00,19.8,10.6,30.42,NW,304,0.0,0.0,67,0.00,,,0.00,0,Wunderground v.1.15,2013-02-21 00:48:00,
2013-02-20 18:53:00,19.7,10.5,30.42,NW,304,0.0,0.0,67,0.00,,,0.00,0,Wunderground v.1.15,2013-02-21 00:53:00,
2013-02-20 18:58:00,19.6,10.4,30.42,NW,304,0.0,1.0,67,0.00,,,0.00,0,Wunderground v.1.15,2013-02-21 00:58:00,
2013-02-20 19:03:00,19.5,10.6,30.42,NW,304,0.0,0.0,68,0.00,,,0.00,0,Wunderground v.1.15,2013-02-21 01:03:00,
2013-02-20 19:08:00,19.1,10.3,30.41,NW,304,0.0,0.0,68,0.00,,,0.00,0,Wunderground v.1.15,2013-02-21 01:08:00,
2013-02-20 19:13:00,18.8,10.0,30.41,NW,304,0.0,0.0,68,0.00,,,0.00,0,Wunderground v.1.15,2013-02-21 01:13:00,
2013-02-20 19:18:00,18.5,10.0,30.41,NW,304,0.0,0.0,69,0.00,,,0.00,0,Wunderground v.1.15,2013-02-21 01:18:00,
2013-02-20 19:23:00,18.3,10.1,30.41,NW,304,0.0,0.0,70,0.00,,,0.00,0,Wunderground v.1.15,2013-02-21 01:23:00,
2013-02-20 19:28:00,18.0,9.9,30.41,NW,304,0.0,1.0,70,0.00,,,0.00,0,Wunderground v.1.15,2013-02-21 01:28:00,
2013-02-20 19:33:00,17.9,10.1,30.41,NW,304,0.0,1.0,71,0.00,,,0.00,0,Wunderground v.1.15,2013-02-21 01:33:00,
2013-02-20 19:38:00,17.9,10.1,30.41,NW,304,0.0,1.0,71,0.00,,,0.00,0,Wunderground v.1.15,2013-02-21 01:38:00,
2013-02-20 19:43:00,17.8,10.0,30.41,NW,304,0.0,0.0,71,0.00,,,0.00,0,Wunderground v.1.15,2013-02-21 01:43:00,
2013-02-20 19:48:00,17.7,9.9,30.41,NW,304,0.0,1.0,71,0.00,,,0.00,0,Wunderground v.1.15,2013-02-21 01:48:00,
2013-02-20 19:53:00,17.6,9.8,30.41,NW,304,0.0,2.0,71,0.00,,,0.00,0,Wunderground v.1.15,2013-02-21 01:53:00,
2013-02-20 19:58:00,17.6,9.8,30.41,North,5,2.0,3.0,71,0.00,,,0.00,0,Wunderground v.1.15,2013-02-21 01:58:00,
2013-02-20 20:03:00,17.9,10.1,30.41,NW,314,1.0,4.0,71,0.00,,,0.00,0,Wunderground v.1.15,2013-02-21 02:03:00,
2013-02-20 20:08:00,18.2,10.1,30.41,NNE,12,4.0,6.0,70,0.00,,,0.00,0,Wunderground v.1.15,2013-02-21 02:08:00,
2013-02-20 20:13:00,18.5,10.0,30.41,North,9,1.0,5.0,69,0.00,,,0.00,0,Wunderground v.1.15,2013-02-21 02:13:00,
2013-02-20 20:18:00,18.7,9.9,30.41,North,355,2.0,6.0,68,0.00,,,0.00,0,Wunderground v.1.15,2013-02-21 02:18:00,
2013-02-20 20:23:00,18.9,10.1,30.41,North,360,4.0,6.0,68,0.00,,,0.00,0,Wunderground v.1.15,2013-02-21 02:23:00,
2013-02-20 20:28:00,18.9,10.1,30.41,North,355,2.0,6.0,68,0.00,,,0.00,0,Wunderground v.1.15,2013-02-21 02:28:00,
2013-02-20 20:33:00,18.7,9.9,30.41,North,5,3.0,4.0,68,0.00,,,0.00,0,Wunderground v.1.15,2013-02-21 02:33:00,
2013-02-20 20:38:00,18.6,9.8,30.41,North,355,2.0,7.0,68,0.00,,,0.00,0,Wunderground v.1.15,2013-02-21 02:38:00,
2013-02-20 20:43:00,18.5,9.7,30.41,NNW,335,4.0,5.0,68,0.00,,,0.00,0,Wunderground v.1.15,2013-02-21 02:43:00,
2013-02-20 20:51:00,18.5,9.7,30.41,NNE,12,2.0,3.0,68,0.00,,,0.00,0,Wunderground v.1.15,2013-02-21 02:51:00,
2013-02-20 20:56:00,18.4,9.6,30.41,NNE,13,0.0,3.0,68,0.00,,,0.00,0,Wunderground v.1.15,2013-02-21 02:56:00,
2013-02-20 21:01:00,18.2,9.4,30.42,NNE,13,0.0,1.0,68,0.00,,,0.00,0,Wunderground v.1.15,2013-02-21 03:01:00,
2013-02-20 21:06:00,18.0,9.5,30.42,NNE,12,0.0,2.0,69,0.00,,,0.00,0,Wunderground v.1.15,2013-02-21 03:06:00,
2013-02-20 21:11:00,18.0,9.5,30.42,NNE,13,0.0,1.0,69,0.00,,,0.00,0,Wunderground v.1.15,2013-02-21 03:11:00,
2013-02-20 21:16:00,17.9,9.4,30.42,NNE,12,0.0,1.0,69,0.00,,,0.00,0,Wunderground v.1.15,2013-02-21 03:16:00,
2013-02-20 21:21:00,17.6,9.2,30.42,NNE,13,0.0,0.0,69,0.00,,,0.00,0,Wunderground v.1.15,2013-02-21 03:21:00,
2013-02-20 21:26:00,17.4,9.0,30.42,North,355,1.0,3.0,69,0.00,,,0.00,0,Wunderground v.1.15,2013-02-21 03:26:00,
2013-02-20 21:31:00,17.3,9.2,30.42,SW,232,0.0,3.0,70,0.00,,,0.00,0,Wunderground v.1.15,2013-02-21 03:31:00,
2013-02-20 21:36:00,17.1,9.0,30.43,WSW,245,0.0,3.0,70,0.00,,,0.00,0,Wunderground v.1.15,2013-02-21 03:36:00,
2013-02-20 21:41:00,17.0,9.2,30.42,WSW,258,1.0,3.0,71,0.00,,,0.00,0,Wunderground v.1.15,2013-02-21 03:41:00,
2013-02-20 21:46:00,16.8,9.0,30.42,WSW,258,0.0,3.0,71,0.00,,,0.00,0,Wunderground v.1.15,2013-02-21 03:46:00,
2013-02-20 21:51:00,16.6,8.8,30.42,West,259,1.0,2.0,71,0.00,,,0.00,0,Wunderground v.1.15,2013-02-21 03:51:00,
2013-02-20 21:56:00,16.4,8.6,30.43,West,259,2.0,3.0,71,0.00,,,0.00,0,Wunderground v.1.15,2013-02-21 03:56:00,
2013-02-20 22:01:00,16.2,8.8,30.43,West,259,0.0,1.0,72,0.00,,,0.00,0,Wunderground v.1.15,2013-02-21 04:01:00,
2013-02-20 22:06:00,15.9,8.5,30.42,West,259,0.0,1.0,72,0.00,,,0.00,0,Wunderground v.1.15,2013-02-21 04:06:00,
2013-02-20 22:11:00,15.6,8.2,30.42,West,259,0.0,1.0,72,0.00,,,0.00,0,Wunderground v.1.15,2013-02-21 04:11:00,
2013-02-20 22:16:00,15.4,8.3,30.43,West,259,1.0,2.0,73,0.00,,,0.00,0,Wunderground v.1.15,2013-02-21 04:16:00,
2013-02-20 22:21:00,15.3,8.2,30.43,West,259,1.0,2.0,73,0.00,,,0.00,0,Wunderground v.1.15,2013-02-21 04:21:00,
2013-02-20 22:26:00,15.4,8.3,30.43,West,259,0.0,2.0,73,0.00,,,0.00,0,Wunderground v.1.15,2013-02-21 04:26:00,
2013-02-20 22:31:00,15.2,8.1,30.43,West,259,0.0,0.0,73,0.00,,,0.00,0,Wunderground v.1.15,2013-02-21 04:31:00,
2013-02-20 22:36:00,14.8,7.7,30.43,North,350,3.0,3.0,73,0.00,,,0.00,0,Wunderground v.1.15,2013-02-21 04:36:00,
2013-02-20 22:41:00,14.6,7.8,30.43,North,350,3.0,4.0,74,0.00,,,0.00,0,Wunderground v.1.15,2013-02-21 04:41:00,
2013-02-20 22:46:00,14.7,8.2,30.43,North,350,0.0,4.0,75,0.00,,,0.00,0,Wunderground v.1.15,2013-02-21 04:46:00,
2013-02-20 22:51:00,15.0,8.2,30.43,NNW,331,4.0,4.0,74,0.00,,,0.00,0,Wunderground v.1.15,2013-02-21 04:51:00,
2013-02-20 22:56:00,15.3,8.5,30.43,NNW,331,0.0,4.0,74,0.00,,,0.00,0,Wunderground v.1.15,2013-02-21 04:56:00,
2013-02-20 23:00:00,15.3,8.2,30.43,NNW,331,0.0,4.0,73,0.00,,,0.00,0,Wunderground v.1.15,2013-02-21 05:00:00,
2013-02-20 23:05:00,15.2,8.1,30.43,NNW,331,1.0,2.0,73,0.00,,,0.00,0,Wunderground v.1.15,2013-02-21 05:05:00,
2013-02-20 23:10:00,15.0,7.9,30.43,NNW,331,0.0,1.0,73,0.00,,,0.00,0,Wunderground v.1.15,2013-02-21 05:10:00,
2013-02-20 23:15:00,14.8,7.7,30.43,NNW,331,0.0,2.0,73,0.00,,,0.00,0,Wunderground v.1.15,2013-02-21 05:15:00,
2013-02-20 23:20:00,14.6,7.8,30.43,NNW,331,0.0,0.0,74,0.00,,,0.00,0,Wunderground v.1.15,2013-02-21 05:20:00,
2013-02-20 23:25:00,14.4,7.6,30.43,NNW,331,0.0,2.0,74,0.00,,,0.00,0,Wunderground v.1.15,2013-02-21 05:25:00,
2013-02-20 23:30:00,14.4,7.6,30.43,NNW,331,1.0,2.0,74,0.00,,,0.00,0,Wunderground v.1.15,2013-02-21 05:30:00,
2013-02-20 23:35:00,14.4,7.9,30.43,NNW,346,2.0,4.0,75,0.00,,,0.00,0,Wunderground v.1.15,2013-02-21 05:35:00,
2013-02-20 23:40:00,14.6,7.8,30.43,NNW,346,0.0,2.0,74,0.00,,,0.00,0,Wunderground v.1.15,2013-02-21 05:40:00,
2013-02-20 23:45:00,14.7,7.9,30.43,NNW,346,2.0,3.0,74,0.00,,,0.00,0,Wunderground v.1.15,2013-02-21 05:45:00,
2013-02-20 23:50:00,14.8,8.0,30.44,NNW,346,0.0,1.0,74,0.00,,,0.00,0,Wunderground v.1.15,2013-02-21 05:50:00,
2013-02-20 23:55:00,14.8,8.0,30.44,NNW,346,1.0,3.0,74,0.00,,,0.00,0,Wunderground v.1.15,2013-02-21 05:55:00,